Hanjin Valencia — 3FSR7 — position and weather

sailwx.info

Track history (hours):
 
Tides and Currents Weather Stations Pressure Air Temp Water Temp Dewpoint Dewpoint Depression Visibility Wind Speed Wind Dir Waves Ship Positions

Hanjin Valencia

Last reported at 2015-Aug-08 03:15 UTC. Time now 2015-Aug-29 03:11 UTC.
Position N 31°07' E 121°28'.
Warning: this ship's position is 20 days out of date.

Length 298 m; draft 5.4 m.

Type: Cargo ship. MMSI: 353584000.

Date/timePositionNaut miles runAvg speedWind from/ knotsBaromVisibWave heightAir tempDewpointWater temp
2015-Aug-08 03:15N 31°07' E 121°28'0 0.0
2015-Aug-08 02:27N 31°07' E 121°28'0 0.0
2015-Aug-08 01:33N 31°07' E 121°28'3 2.8
2015-Aug-08 00:33N 31°10' E 121°28'5 5.0
2015-Aug-07 23:33N 31°15' E 121°29'5 5.1
2015-Aug-07 22:33N 31°18' E 121°33'5 5.5
2015-Aug-07 21:33N 31°23' E 121°30'5 5.1
2015-Aug-07 20:29N 31°23' E 121°37'0 0.0
2015-Aug-07 19:20N 31°23' E 121°37'0 0.1
2015-Aug-07 18:20N 31°23' E 121°37'0 0.1
2015-Aug-07 17:23N 31°23' E 121°37'0 0.0
2015-Aug-07 16:32N 31°23' E 121°37'0 0.0
2015-Aug-07 15:32N 31°23' E 121°37'0 0.0
2015-Aug-07 14:32N 31°23' E 121°37'0 0.1
2015-Aug-07 13:32N 31°23' E 121°37'0 0.1
2015-Aug-07 12:08N 31°23' E 121°36'0 0.0
2015-Aug-07 11:32N 31°23' E 121°36'0 0.1
2015-Aug-07 10:32N 31°23' E 121°37'0 0.1
2015-Aug-07 09:29N 31°23' E 121°36'0 0.1
2015-Aug-07 08:26N 31°23' E 121°37'0 0.0
2015-Aug-07 07:26N 31°23' E 121°37'0 0.0
2015-Aug-07 06:29N 31°23' E 121°37'0 0.2
2015-Aug-07 05:26N 31°23' E 121°37'0 0.0
2015-Aug-07 04:32N 31°23' E 121°37'0 0.0
2015-Aug-07 03:32N 31°23' E 121°37'0 0.0
2015-Aug-07 02:29N 31°23' E 121°37'0 0.0
2015-Aug-07 01:32N 31°23' E 121°37'0 0.0
2015-Aug-07 00:29N 31°23' E 121°37'0 0.1
2015-Aug-06 23:32N 31°23' E 121°37'0 0.1
2015-Aug-06 22:32N 31°23' E 121°37'0 0.0
2015-Aug-06 21:32N 31°23' E 121°37'0 0.0
2015-Aug-06 20:32N 31°23' E 121°37'0 0.0
2015-Aug-06 19:32N 31°23' E 121°37'0 0.0
2015-Aug-06 18:32N 31°23' E 121°37'0 0.2
2015-Aug-06 17:29N 31°23' E 121°37'0 0.0
2015-Aug-06 16:32N 31°23' E 121°37'0 0.0
2015-Aug-06 15:32N 31°23' E 121°37'0 0.0
2015-Aug-06 14:32N 31°23' E 121°37'0 0.0
2015-Aug-06 13:32N 31°23' E 121°37'0 0.1
2015-Aug-06 12:32N 31°23' E 121°37'0 0.1
2015-Aug-06 11:32N 31°23' E 121°37'0 0.1
2015-Aug-06 10:32N 31°23' E 121°37'0 0.0
2015-Aug-06 09:32N 31°23' E 121°37'0 0.1
2015-Aug-06 08:32N 31°23' E 121°36'0 0.1
2015-Aug-06 07:29N 31°23' E 121°37'0 0.1
2015-Aug-06 06:32N 31°23' E 121°36'0 0.1
2015-Aug-06 05:32N 31°23' E 121°37'0 0.2
2015-Aug-06 04:32N 31°23' E 121°37'0 0.0
2015-Aug-06 03:29N 31°23' E 121°37'0 0.0
2015-Aug-06 02:32N 31°23' E 121°37'0 0.0
2015-Aug-06 01:23N 31°23' E 121°37'0 0.0
2015-Aug-06 00:32N 31°23' E 121°37'0 0.1
2015-Aug-05 23:23N 31°23' E 121°37'0 0.1
2015-Aug-05 22:32N 31°23' E 121°37'0 0.1
2015-Aug-05 21:32N 31°23' E 121°37'0 0.0
2015-Aug-05 20:32N 31°23' E 121°37'2 1.7
2015-Aug-05 19:33N 31°23' E 121°35'6 5.7
2015-Aug-05 18:34N 31°21' E 121°40'1211.5
2015-Aug-05 17:33N 31°12' E 121°49'1212.1
2015-Aug-05 16:33N 31°05' E 122°01'1110.9
2015-Aug-05 15:34N 31°03' E 122°14'17 7.9
2015-Aug-05 13:23N 30°60' E 122°33'4 0.9
2015-Aug-05 08:27N 31°01' E 122°38'0 0.0
2015-Aug-05 07:15N 31°01' E 122°38'0 0.0
2015-Aug-05 05:33N 31°01' E 122°38'0 0.0
2015-Aug-05 03:30N 31°01' E 122°38'0 0.1
2015-Aug-05 01:27N 31°01' E 122°38'0 0.0
2015-Aug-04 23:12N 31°01' E 122°38'0 0.0
2015-Aug-04 22:33N 31°01' E 122°38'0 0.1
2015-Aug-04 21:27N 31°01' E 122°38'0 0.0
2015-Aug-04 20:27N 31°01' E 122°38'0 0.0
2015-Aug-04 19:30N 31°01' E 122°38'0 0.1
2015-Aug-04 18:30N 31°01' E 122°38'0 0.0
2015-Aug-04 17:24N 31°01' E 122°38'0 0.0
2015-Aug-04 15:21N 31°01' E 122°38'0 0.0
2015-Aug-04 14:33N 31°01' E 122°38'0 0.1
2015-Aug-04 13:30N 31°01' E 122°38'0 0.0
2015-Aug-04 11:12N 31°01' E 122°38'0 0.0
2015-Aug-04 10:09N 31°01' E 122°38'0 0.1
2015-Aug-04 09:18N 31°01' E 122°38'0 0.1
2015-Aug-04 08:27N 31°01' E 122°38'0 0.0
2015-Aug-04 07:27N 31°01' E 122°38'0 0.0
2015-Aug-04 06:33N 31°01' E 122°38'0 0.1
2015-Aug-04 05:33N 31°01' E 122°38'3 3.1
2015-Aug-04 04:33N 31°01' E 122°42'9 8.5
2015-Aug-04 03:33N 31°02' E 122°51'20 9.8
2015-Aug-04 01:30N 31°00' E 123°15'9 9.5
2015-Aug-04 00:34N 30°51' E 123°13'10 9.6
2015-Aug-03 23:34N 30°42' E 123°13'9 9.2
2015-Aug-03 22:34N 30°33' E 123°12'9 9.2
2015-Aug-03 21:33N 30°23' E 123°12'10 9.7
2015-Aug-03 20:32N 30°13' E 123°11'5410.9
2015-Aug-03 15:33N 29°19' E 123°09'324 9.7
2015-Aug-02 06:17N 24°39' E 120°08'810.5
2015-Aug-02 05:33N 24°33' E 120°02'12 9.8
2015-Aug-02 04:21N 24°23' E 119°55'810.2
2015-Aug-02 03:33N 24°15' E 119°55'8511.6
2015-Aug-01 20:12N 22°49' E 119°54'6 9.6
2015-Aug-01 19:33N 22°43' E 119°54'  
Track history (hours):
 
Tides and Currents Weather Stations Pressure Air Temp Water Temp Dewpoint Dewpoint Depression Visibility Wind Speed Wind Dir Waves Ship Positions

Hanjin Valencia

Last reported at 2015-Aug-08 03:15 UTC. Time now 2015-Aug-29 03:11 UTC.
Position N 31°07' E 121°28'.
Warning: this ship's position is 20 days out of date.

Length 298 m; draft 5.4 m.

Type: Cargo ship. MMSI: 353584000.

Date/timePositionNaut miles runAvg speedWind from/ knotsBaromVisibWave heightAir tempDewpointWater temp
2015-Aug-08 03:15N 31°07' E 121°28'0 0.0
2015-Aug-08 02:27N 31°07' E 121°28'0 0.0
2015-Aug-08 01:33N 31°07' E 121°28'3 2.8
2015-Aug-08 00:33N 31°10' E 121°28'5 5.0
2015-Aug-07 23:33N 31°15' E 121°29'5 5.1
2015-Aug-07 22:33N 31°18' E 121°33'5 5.5
2015-Aug-07 21:33N 31°23' E 121°30'5 5.1
2015-Aug-07 20:29N 31°23' E 121°37'0 0.0
2015-Aug-07 19:20N 31°23' E 121°37'0 0.1
2015-Aug-07 18:20N 31°23' E 121°37'0 0.1
2015-Aug-07 17:23N 31°23' E 121°37'0 0.0
2015-Aug-07 16:32N 31°23' E 121°37'0 0.0
2015-Aug-07 15:32N 31°23' E 121°37'0 0.0
2015-Aug-07 14:32N 31°23' E 121°37'0 0.1
2015-Aug-07 13:32N 31°23' E 121°37'0 0.1
2015-Aug-07 12:08N 31°23' E 121°36'0 0.0
2015-Aug-07 11:32N 31°23' E 121°36'0 0.1
2015-Aug-07 10:32N 31°23' E 121°37'0 0.1
2015-Aug-07 09:29N 31°23' E 121°36'0 0.1
2015-Aug-07 08:26N 31°23' E 121°37'0 0.0
2015-Aug-07 07:26N 31°23' E 121°37'0 0.0
2015-Aug-07 06:29N 31°23' E 121°37'0 0.2
2015-Aug-07 05:26N 31°23' E 121°37'0 0.0
2015-Aug-07 04:32N 31°23' E 121°37'0 0.0
2015-Aug-07 03:32N 31°23' E 121°37'0 0.0
2015-Aug-07 02:29N 31°23' E 121°37'0 0.0
2015-Aug-07 01:32N 31°23' E 121°37'0 0.0
2015-Aug-07 00:29N 31°23' E 121°37'0 0.1
2015-Aug-06 23:32N 31°23' E 121°37'0 0.1
2015-Aug-06 22:32N 31°23' E 121°37'0 0.0
2015-Aug-06 21:32N 31°23' E 121°37'0 0.0
2015-Aug-06 20:32N 31°23' E 121°37'0 0.0
2015-Aug-06 19:32N 31°23' E 121°37'0 0.0
2015-Aug-06 18:32N 31°23' E 121°37'0 0.2
2015-Aug-06 17:29N 31°23' E 121°37'0 0.0
2015-Aug-06 16:32N 31°23' E 121°37'0 0.0
2015-Aug-06 15:32N 31°23' E 121°37'0 0.0
2015-Aug-06 14:32N 31°23' E 121°37'0 0.0
2015-Aug-06 13:32N 31°23' E 121°37'0 0.1
2015-Aug-06 12:32N 31°23' E 121°37'0 0.1
2015-Aug-06 11:32N 31°23' E 121°37'0 0.1
2015-Aug-06 10:32N 31°23' E 121°37'0 0.0
2015-Aug-06 09:32N 31°23' E 121°37'0 0.1
2015-Aug-06 08:32N 31°23' E 121°36'0 0.1
2015-Aug-06 07:29N 31°23' E 121°37'0 0.1
2015-Aug-06 06:32N 31°23' E 121°36'0 0.1
2015-Aug-06 05:32N 31°23' E 121°37'0 0.2
2015-Aug-06 04:32N 31°23' E 121°37'0 0.0
2015-Aug-06 03:29N 31°23' E 121°37'0 0.0
2015-Aug-06 02:32N 31°23' E 121°37'0 0.0
2015-Aug-06 01:23N 31°23' E 121°37'0 0.0
2015-Aug-06 00:32N 31°23' E 121°37'0 0.1
2015-Aug-05 23:23N 31°23' E 121°37'0 0.1
2015-Aug-05 22:32N 31°23' E 121°37'0 0.1
2015-Aug-05 21:32N 31°23' E 121°37'0 0.0
2015-Aug-05 20:32N 31°23' E 121°37'2 1.7
2015-Aug-05 19:33N 31°23' E 121°35'6 5.7
2015-Aug-05 18:34N 31°21' E 121°40'1211.5
2015-Aug-05 17:33N 31°12' E 121°49'1212.1
2015-Aug-05 16:33N 31°05' E 122°01'1110.9
2015-Aug-05 15:34N 31°03' E 122°14'17 7.9
2015-Aug-05 13:23N 30°60' E 122°33'4 0.9
2015-Aug-05 08:27N 31°01' E 122°38'0 0.0
2015-Aug-05 07:15N 31°01' E 122°38'0 0.0
2015-Aug-05 05:33N 31°01' E 122°38'0 0.0
2015-Aug-05 03:30N 31°01' E 122°38'0 0.1
2015-Aug-05 01:27N 31°01' E 122°38'0 0.0
2015-Aug-04 23:12N 31°01' E 122°38'0 0.0
2015-Aug-04 22:33N 31°01' E 122°38'0 0.1
2015-Aug-04 21:27N 31°01' E 122°38'0 0.0
2015-Aug-04 20:27N 31°01' E 122°38'0 0.0
2015-Aug-04 19:30N 31°01' E 122°38'0 0.1
2015-Aug-04 18:30N 31°01' E 122°38'0 0.0
2015-Aug-04 17:24N 31°01' E 122°38'0 0.0
2015-Aug-04 15:21N 31°01' E 122°38'0 0.0
2015-Aug-04 14:33N 31°01' E 122°38'0 0.1
2015-Aug-04 13:30N 31°01' E 122°38'0 0.0
2015-Aug-04 11:12N 31°01' E 122°38'0 0.0
2015-Aug-04 10:09N 31°01' E 122°38'0 0.1
2015-Aug-04 09:18N 31°01' E 122°38'0 0.1
2015-Aug-04 08:27N 31°01' E 122°38'0 0.0
2015-Aug-04 07:27N 31°01' E 122°38'0 0.0
2015-Aug-04 06:33N 31°01' E 122°38'0 0.1
2015-Aug-04 05:33N 31°01' E 122°38'3 3.1
2015-Aug-04 04:33N 31°01' E 122°42'9 8.5
2015-Aug-04 03:33N 31°02' E 122°51'20 9.8
2015-Aug-04 01:30N 31°00' E 123°15'9 9.5
2015-Aug-04 00:34N 30°51' E 123°13'10 9.6
2015-Aug-03 23:34N 30°42' E 123°13'9 9.2
2015-Aug-03 22:34N 30°33' E 123°12'9 9.2
2015-Aug-03 21:33N 30°23' E 123°12'10 9.7
2015-Aug-03 20:32N 30°13' E 123°11'5410.9
2015-Aug-03 15:33N 29°19' E 123°09'324 9.7
2015-Aug-02 06:17N 24°39' E 120°08'810.5
2015-Aug-02 05:33N 24°33' E 120°02'12 9.8
2015-Aug-02 04:21N 24°23' E 119°55'810.2
2015-Aug-02 03:33N 24°15' E 119°55'8511.6
2015-Aug-01 20:12N 22°49' E 119°54'6 9.6
2015-Aug-01 19:33N 22°43' E 119°54'  

Dump ship's entire track history